Tracking 30160 objects as of 13-Feb-2025
HD Live streaming from Space Station
objects crossing your sky now

STARLINK-4038

Track STARLINK-4038 now!
10-day predictions
STARLINK-4038 is classified as:


NORAD ID: 53150
Int'l Code: 2022-083U
Perigee: 545.9 km
Apogee: 547.8 km
Inclination: 53.2 °
Period: 95.4 minutes
Semi major axis: 6917 km
RCS: Unknown
Launch date: July 17, 2022
Source: United States (US)
Launch site: AIR FORCE EASTERN TEST RANGE (AFETR)
Your satellite tracking list
Your tracking list is empty




NASA's NSSDC Master Catalog

Two Line Element Set (TLE):
1 53150U 22083U   25044.45260843  .00004785  00000-0  31853-3 0  9993
2 53150  53.2177 111.4742 0001369  87.0877 273.0271 15.08842819142596
Source of the keplerian elements: AFSPC